Terminal Aerodrome Forecast
Issued by NWS

Home | Current Version | Previous Version | Text Only | Print | Product List | Glossary On
Versions: 1 2 3 4 5 6 7 8 9 10 11 12 13 14
000
FTUS44 KEPZ 072209 AAA
TAFLRU
TAF AMD
KLRU 072209Z 0722/0818 30015G25KT P6SM VCTS SCT050CB BKN090 BKN200
      TEMPO 0722/0802 VRB35G47KT 3SM +TSRAGS BKN030CB OVC080
     FM080400 17008KT P6SM VCTS BKN050CB BKN200
     FM081500 22008KT P6SM VCTS BKN050CB BKN200=

USA.gov is the U.S. government's official web portal to all federal, state and local government web resources and services.